Regional Weather Roundup
Issued by NWS

Home | Current Version | Previous Version | Graphics & Text | Print | Product List | Glossary On
Versions: 1 2 3 4 5 6 7 8 9 10 11 12 13 14 15 16 17 18 19 20 21 22 23 24 25 26 27 28 29 30 31 32 33 34 35 36 37 38 39 40 41 42 43 44 45 46 47 48 49 50
000
ASUS45 KCYS 301710
RWRWY

WYOMING REGIONAL WEATHER ROUNDUP
NATIONAL WEATHER SERVICE CHEYENNE WY
1100 AM MDT TUE SEP 30 2014

NOTE:  "FAIR" INDICATES FEW OR NO CLOUDS BELOW 12,000 FEET
WITH NO SIGNIFICANT WEATHER AND/OR OBSTRUCTIONS TO VISIBILITY.

WYZ001-301800-
YELLOWSTONE NATIONAL PARK

CITY           SKY/WX    TMP DP  RH WIND       PRES   REMARKS
LK YELLOWSTONE   N/A     41  35  79 W9        29.94S
W YELLOWSTONE  NOT AVBL

$$
WYZ002>013-054>058-071-098>099-301800-
NORTHERN WYOMING

CITY           SKY/WX    TMP DP  RH WIND       PRES   REMARKS
JACKSON        CLOUDY    46  43  87 S12       29.92R
CODY           CLOUDY    55  43  62 N7        29.77S
GREYBULL       PTSUNNY   53  45  74 S5        29.75S
WORLAND        CLOUDY    53  44  71 SW3       29.75F
SHERIDAN       CLOUDY    59  43  55 N16G23    29.71F
BUFFALO        PTSUNNY   57  43  59 N14G29    29.74R
GILLETTE       CLOUDY    51  48  89 NW17      29.68F
HULETT         LGT RAIN  52  50  93 NW10G16   29.63
NEWCASTLE      LGT RAIN  50  48  93 NW23G36   29.63

$$
WYZ014>020-022>026-101>103-301800-
CENTRAL WYOMING

CITY           SKY/WX    TMP DP  RH WIND       PRES   REMARKS
BIG PINEY      LGT RAIN  45  39  79 CALM      29.95S
PINEDALE       DRIZZLE   45  37  76 W7        29.95S
DUBOIS         PTSUNNY   46  34  61 NW16      29.86F
LANDER         PTSUNNY   56  36  47 S7        29.81S
RIVERTON       MOSUNNY   60  37  42 NW12      29.79F
CASPER         CLOUDY    57  36  45 SW18      29.79S
DOUGLAS        PTSUNNY   59  37  44 W26G36    29.75S

$$
WYZ021-027>030-104>119-301800-
SOUTHERN WYOMING

CITY           SKY/WX    TMP DP  RH WIND       PRES   REMARKS
EVANSTON         N/A     45  41  86 SW16      30.02F
KEMMERER       CLOUDY    45  41  87 W18       29.99R
FORT BRIDGER   PTSUNNY   46  44  90 W21G31    30.02S
ROCK SPRINGS   CLOUDY    47  40  76 W24       29.96F
DIXON          RAIN      49  40  72 SW12      30.00S
RAWLINS        MOSUNNY   50  38  63 SW30G40   29.91F
SARATOGA       PTSUNNY   50  37  62 W23G31    29.96F
LARAMIE        CLOUDY    49  34  56 W24G31    29.91F
CHEYENNE       SUNNY     58  35  42 W20G36    29.87F
TORRINGTON     PTSUNNY   60  40  47 W32G46    29.73R
PINE BLUFFS    FAIR      63  34  34 W28G35    29.84S

$$


USA.gov is the U.S. government's official web portal to all federal, state and local government web resources and services.